www.pogodaiklimat.ru

Погода и климат >> Архив погоды >> Монголия >> Баруунтуруун


ПОГОДА в Баруунтурууне

  • Прогноз погоды в Баруунтурууне
  • Монитор погоды в Баруунтурууне

АРХИВ ПОГОДЫ в Баруунтурууне

Время (UTC), дата Ветер
(напр.,м/с)
 
Видим.   Явления Облачность Т
(С)
Тd
(С)
f
(%)
Тe
(С)
Тes
(С)
Комфортность P
(гПа)
Po
(гПа)
Тmin
(С)
Tmax
(С)
R
(мм)
R24
(мм)
S
(см)
18 18.06 Ю 3 50 км 3/0
[Ci fib]
+14.5 +8.7 68 +14 +14 1007.9 870.9
21 18.06 ЮВ 2 50 км 3/0
[Ci]
+13.3 +6.6 64 +13 +13 1008.2 870.6
00 19.06 З 2 50 км 3/0
[Ci]
+16.2 +7.7 57 +16 +19 1007.6 871.4 +14.0
03 19.06 штиль 0 50 км 3/0
[Ac trans Ci fib]
+23.2 +6.5 34 +24 +39 комфорт 1004.2 871.4
06 19.06 С 2 50 км 4/3 1000 м
[Cu med, cong Ci fib]
+26.9 +2.1 20 +25 +37 комфорт 1000.9 870.1
09 19.06 штиль 0 50 км 5/3 1000 м
[Cu med, cong Ci]
+29.1 +1.6 17 +27 +36 жарко 998.1 869.0
12 19.06 С 2 50 км 5/1 1000 м
[Cu hum Ci]
+28.2 +3.1 20 +26 +28 жарко 999.3 869.2 +29.3
15 19.06 ЮЗ 1 50 км 1/0
[Ci]
+19.4 +10.7 57 +22 +22 комфорт 1005.1 870.6
18 19.06 штиль 0 50 км ясно +16.2 +8.2 59 +16 +16 1007.0 870.9
21 19.06 ЮЗ 1 50 км ясно +14.9 +6.5 57 +16 +16 1007.5 870.7
00 20.06 З 3 50 км 3/0
[Cs]
+19.6 +4.5 37 +20 +22 1006.3 871.7 +14.1
03 20.06 СЗ 4 50 км 8/0
[Ac lent Cs]
+22.3 +6.1 35 +23 +28 комфорт 1005.4 872.1
06 20.06 СЗ 4 50 км 8/0
[Ac As]
+24.2 +6.9 33 +24 +30 комфорт 1004.7 872.3
09 20.06 СЗ 5 50 км 8/3 1000 м
[Cu med, cong Cs]
+25.4 +6.6 30 +25 +29 комфорт 1004.6 872.7
12 20.06 СЗ 5 50 км 8/0
[Ac cast Cs]
+23.4 +5.8 32 +24 +24 комфорт 1006.6 873.6 +26.0
15 20.06 З 1 50 км 9/9 1000 м
[Sc]
+19.2 +7.0 45 +21 +21 комфорт 1009.8 874.6
18 20.06 Ю 4 50 км 9/9 1000 м
[Sc]
+16.6 +8.3 58 +16 +16 1011.9 875.3
21 20.06 Ю 2 20 км в посл. час дождь 9/9 1000 м
[Sc]
+15.6 +9.5 67 +16 +16 1012.4 875.3
00 21.06 З 3 50 км {дождь} 9/6 1000 м
[Sc Ac und]
+16.3 +10.2 67 +16 +16 1016.3 876.1 +13.5 0.0
03 21.06 СЗ 4 50 км 8/4 1000 м
[Cu med, cong Ac cast]
+19.3 +8.9 51 +20 +23 1011.6 876.2
06 21.06 С 3 50 км 9/4 1000 м
[Sc Ac cast]
+22.1 +8.2 41 +23 +27 комфорт 1009.3 875.4
09 21.06 С 2 50 км 8/4 1000 м
[Cu med, cong Ac cast]
+22.6 +8.3 40 +24 +27 комфорт 1007.5 874.0
12 21.06 С 2 50 км 6/3 1000 м
[Cu med, cong Ac cast]
+23.4 +6.2 33 +24 +25 комфорт 1006.7 873.7 +23.6
15 21.06 штиль 0 50 км 3/0
[Ac cast]
+17.1 +8.8 58 +17 +17 1009.9 873.8
18 21.06 штиль 0 50 км ясно +15.0 +9.4 69 +15 +15 1010.7 873.5
21 21.06 Ю 3 50 км 6/0
[Ac lent Cs]
+13.6 +9.1 74 +12 +12 1010.1 872.4
00 22.06 ЮЗ 2 50 км 9/4 1000 м
[Sc As trans Ci fib]
+16.7 +9.1 61 +17 +18 1009.1 872.9 +13.4
03 22.06 штиль 0 50 км в посл. час дождь 9/9 1000 м
[Sc]
+19.2 +10.7 58 +20 +22 1007.5 872.6
06 22.06 СВ 2 50 км {дождь} 8/8 1000 м
[Sc]
+22.2 +9.0 43 +24 +27 комфорт 1004.5 871.2
09 22.06 СВ 2 50 км 8/6 1000 м
[Sc Cc]
+24.6 +9.4 38 +25 +29 комфорт 1001.3 869.5
12 22.06 ЮЗ 3 50 км слаб. ливневой дождь {гроза} 8/8 1000 м
[Cu med, cong]
+21.3 +13.7 62 +24 +24 комфорт 1003.8 870.3 +25.3 1
15 22.06 штиль 0 50 км 6/0
[Ci]
+17.5 +13.8 79 +17 +17 1007.1 871.5
18 22.06 Ю 4 50 км 4/0
[Cs]
+15.2 +11.6 79 +14 +14 1008.7 871.9
21 22.06 ЮЗ 3 50 км 4/0
[Ac trans]
+14.1 +10.3 78 +13 +13 1009.5 872.1
00 23.06 Ю 3 50 км 4/3 1000 м
[Cu hum Ac cast Ci]
+16.5 +11.6 73 +16 +18 1007.8 871.7 +13.1
03 23.06 СВ 1 50 км 5/3 1000 м
[Cu hum Ac trans Ci fib]
+21.8 +10.6 49 +24 +33 комфорт 1004.3 870.9
06 23.06 ЮВ 1 50 км 6/6 1000 м
[Cu med, cong]
+26.1 +10.3 37 +27 +35 жарко 1000.0 869.0
09 23.06 ЮВ 5 50 км 6/6 1000 м
[Cu med, cong]
+28.3 +9.1 30 +28 +30 жарко 996.5 866.8
12 23.06 С 4 50 км 8/6 1000 м
[Cu med, cong Ci]
+24.5 +10.4 41 +26 +26 жарко 997.9 866.5 +29.6
15 23.06 Ю 5
{11}
50 км 6/6 1000 м
[Sc]
+20.3 +10.4 53 +22 +22 комфорт 1000.9 867.3
18 23.06 штиль 0 50 км 3/0
[Ac trans]
+17.3 +9.2 59 +17 +17 1002.7 867.6
21 23.06 Ю 2 50 км 9/9 1000 м
[Sc]
+17.4 +7.7 53 +18 +18 1003.6 868.4
00 24.06 штиль 0 50 км 9/9 1000 м
[Sc]
+17.9 +7.3 50 +18 +18 1003.9 868.9 +16.4
03 24.06 штиль 0 50 км 9/9 1000 м
[Sc Ac trans]
+19.4 +7.8 47 +20 +22 1003.8 869.5
06 24.06 СЗ 3 50 км 9/9 1000 м
[Sc]
+19.5 +9.1 51 +21 +22 комфорт 1003.4 869.2
09 24.06 Ю 4 50 км {гроза, ливн. осадки} 9/9 1000 м
[Sc]
+19.4 +10.7 57 +20 +21 1002.8 868.6
12 24.06 СВ 2 50 км {дождь} 4/3 1000 м
[Cu hum Ci fib]
+21.5 +5.0 34 +22 +23 комфорт 1000.5 867.5 +22.0 0.8
15 24.06 СЗ 10
{26}
20 км пыльная буря {гроза, метель} 9/9 1000 м
[Sc]
+8.6 +6.1 84 +4 +4 1012.6 872.3
18 24.06 ЮВ 3
{14}
н/о {гроза} 10/10 1000 м
[Sc]
+9.4 +5.2 75 +7 +7 1014.3 874.1
21 24.06 Ю 3 50 км 3/0
[Ac trans]
+7.2 +4.7 84 +4 +4 1014.0 872.8
00 25.06 штиль 0 50 км 3/3 1000 м
[Cu hum]
+11.4 +4.4 62 +11 +14 1012.1 873.1 +6.5
03 25.06 ЮВ 2 50 км 4/3 1000 м
[Cu med, cong Ci sp]
+14.2 +1.5 42 +14 +23 1009.9 872.5
06 25.06 В 1 50 км 8/8 1000 м
[Cu med, cong]
+16.9 -1.7 28 +18 +22 1007.6 871.7
09 25.06 З 4 50 км 8/8 1000 м
[Cu med, cong]
+15.5 +0.1 35 +15 +16 1008.2 871.6
12 25.06 СЗ 2 50 км 6/6 1000 м
[Sc]
+15.8 +0.8 36 +16 +17 1008.4 871.9 +17.4
15 25.06 В 4 50 км 3/3 1000 м
[Sc]
+11.4 +3.2 57 +9 +9 1012.1 873.1

 

Местоположение метеостанции Баруунтуруун (Монголия): широта 49.65 долгота 94.40 высота над уровнем моря 1232 м.

В архиве по умолчанию представлена погода в Баруунтурууне за последнюю неделю. Архивные данные за месяц целиком и за предыдущие месяцы, начиная с января 2011 года, Вы можете получить, выбрав интересующий диапазон дат из раскрывающегося списка и нажав кнопку "Ввод!".


*Определитесь, кто Вы:
робот инопланетянин человек

Внимание! Время в таблицах - всемирное. Для получения местного времени необходимо прибавить поправку, которая равна 8 ч.

Смотрите также архив погоды в соседних городах и на ближайших метеорологических станциях:

Погода в Эрзине (Тува, Россия) (86 км)
Погода в Тэсе (Монголия) (99 км)
Погода в Ургамале (Монголия) (126 км)
Погода в Завхане (Монголия) (132 км)
Погода в Цэцэн-Ууле (Монголия) (152 км)
Погода в Сосновке (Тува, Россия) (167 км)
Погода в Улаангоме (Монголия) (168 км)
Погода в Хову-Аксы (Тува, Россия) (168 км)
Погода в Хандагайты (Тува, Россия) (204 км)
Погода в Умнегове (Монголия) (206 км)

Пояснения к столбцам:

Ветер - указаны скорость ветра в м/с - средняя за 10 мин, порывы в срок и между сроками (в фигурных скобках) и направление, откуда дует ветер: С - северный, СВ - северо-восточный, В - восточный, ЮВ - юго-восточный, Ю - южный, ЮЗ - юго-западный, З - западный, СЗ - северо-западный.
Видимость - горизонтальная дальность видимости в метрах или километрах. При видимости от 1 до 10 км при отсутствии осадков обычно наблюдается дымка, при ухудшении видимости до 1 км и менее - туман. В сухую погоду видимость может ухудшаться дымом, пылью или мглою.
Явления - указаны атмосферные явления, наблюдавшиеся в срок или в последний час перед сроком; фигурными скобками обозначены явления, наблюдавшиеся между сроками (за 1-3 часа до срока); квадратными скобками обозначены град или гололедные отложения с указанием их диаметра в мм.
Облачность - указаны через наклонную черту общая и нижняя облачность в баллах и высота нижней границы облаков в метрах; квадратными скобками обозначены формы облаков: Ci - перистые, Cs - перисто-слоистые, Cc - перисто-кучевые, Ac - высококучевые, As - высокослоистые, Sc - слоисто-кучевые, Ns - слоисто-дождевые, Cu - кучевые, Cb - кучево-дождевые. Подробнее классификацию облаков см. в Атласе облаков (PDF).
T - Температура воздуха - температура, измеренная на высоте 2 м над землей.
Td - Температура точки росы - температура, при понижении до которой содержащийся в воздухе водяной пар достигнет насыщения.
f - Относительная влажность воздуха - влажноcть воздуха, измеренная на высоте 2 м над землей.
Te - Эффективная температура - температура, которую ощущает одетый по сезону человек в тени. Характеристика душности погоды. При расчете учитывается влияние влажности воздуха и скорости ветра на теплоощущения человека.
Tes - Эффективная температура на солнце - температура, которую ощущает человек, с поправкой на солнечный нагрев. Характеристика знойности погоды. Зависит от высоты солнца над горизонтом, облачности и скорости ветра. Ночью, в пасмурную погоду, а также при ветре 12 м/с и более поправка равна нулю.
P - Атмосферное давление - приведенное к уровню моря атмосферное давление.
Po - Атмосферное давление - измеренное на уровне метеостанции атмосферное давление.
Tmin - Минимальная температура - минимум температуры воздуха на высоте 2 м над землей.
Tmax - Максимальная температура - максимум температуры воздуха на высоте 2 м над землей.
R - Количество осадков - Количество выпавших осадков за период времени, мм. При наведении курсора мыши на число - период времени, за который выпало указанное количество осадков.
R24 - Количество осадков - Количество выпавших осадков за 24 часа, мм.
S - Снежный покров - Высота снежного покрова, см. При наведении курсора мыши на число - состояние снежного покрова и степень покрытия местности в баллах.